Pipestone, MN

7:25 PM CDT on April 19, 2018 (GMT -0500)
Pipestone Municipal

Weather History for KPQN - November, 2012

Change the Weather History Date:

Thursday, November 15, 2012

  Actual Average Record
Temperature  
Mean Temperature 34 °F -  
Max Temperature 44 °F 40 °F 66 °F (2001)
Min Temperature 21 °F 23 °F 1 °F (1996)
Degree Days  
Heating Degree Days 32    
Moisture  
Dew Point 25 °F    
Average Humidity 73    
Maximum Humidity 100    
Minimum Humidity 42    
Precipitation  
Precipitation 0.00 in - - ()
Sea Level Pressure  
Sea Level Pressure 30.28 in    
Wind  
Wind Speed 7 mph (NNW)    
Max Wind Speed 13 mph    
Max Gust Speed 18 mph    
Visibility 10 miles    
Events      
Averages and records for this station are not official NWS values.
T = Trace of Precipitation, MM = Missing Value Source: NWS Daily Summary

Daily Weather History Graph

Daily Weather History Graph

Search for Another Location

Airport or City:

Astronomy

Nov. 15, 2012 Rise Set
Actual Time 7:20 AM CST 4:58 PM CST
Civil Twilight 6:49 AM CST 5:29 PM CST
Nautical Twilight 6:14 AM CST 6:04 PM CST
Astronomical Twilight 5:40 AM CST 6:38 PM CST
Moon 9:20 AM CST (11/15) 6:48 PM CST (11/15)
Length of Visible Light 10h 40m
Length of Day
9h 37m
Waxing Crescent, 5% of the Moon is Illuminated
Nov 15
Waxing Crescent
Nov 20
First Quarter
Nov 28
Full
Dec 6
Last Quarter
Dec 13
New

Hourly Weather History & Observations

Time (CST) Temp. Windchill Dew Point Humidity Pressure Visibility Wind Dir Wind Speed Gust Speed Precip Events Conditions
12:13 AM 33.8 °F 27.7 °F 28.4 °F 81% 30.08 in 10.0 mi SSW 6.9 mph - N/A   Clear
12:34 AM 33.8 °F 30.8 °F 28.4 °F 81% 30.09 in 10.0 mi SSW 3.5 mph - N/A   Clear
12:53 AM 33.8 °F 28.6 °F 28.4 °F 81% 30.08 in 10.0 mi SW 5.8 mph - N/A   Clear
1:13 AM 33.8 °F 26.4 °F 28.4 °F 81% 30.08 in 10.0 mi SW 9.2 mph - N/A   Clear
1:33 AM 33.8 °F 27.7 °F 28.4 °F 81% 30.08 in 10.0 mi SW 6.9 mph - N/A   Clear
1:53 AM 33.8 °F 27.0 °F 28.4 °F 81% 30.08 in 10.0 mi WSW 8.1 mph - N/A   Clear
2:13 AM 30.2 °F 22.6 °F 26.6 °F 86% 30.09 in 10.0 mi WSW 8.1 mph - N/A   Clear
2:33 AM 30.2 °F 24.3 °F 26.6 °F 86% 30.10 in 10.0 mi WSW 5.8 mph - N/A   Clear
2:53 AM 30.2 °F 23.4 °F 26.6 °F 86% 30.10 in 10.0 mi WSW 6.9 mph - N/A   Clear
3:13 AM 30.2 °F 21.9 °F 28.4 °F 93% 30.12 in 10.0 mi West 9.2 mph - N/A   Clear
3:34 AM 32.0 °F 24.8 °F 28.4 °F 87% 30.12 in 10.0 mi West 8.1 mph - N/A   Clear
3:53 AM 30.2 °F 23.4 °F 26.6 °F 86% 30.11 in 10.0 mi West 6.9 mph - N/A   Clear
4:13 AM 28.4 °F 21.2 °F 26.6 °F 93% 30.11 in 10.0 mi West 6.9 mph - N/A   Clear
4:33 AM 30.2 °F 22.6 °F 26.6 °F 86% 30.12 in 10.0 mi West 8.1 mph - N/A   Clear
4:53 AM 30.2 °F 23.4 °F 28.4 °F 93% 30.13 in 10.0 mi West 6.9 mph - N/A   Clear
5:13 AM 30.2 °F 22.6 °F 28.4 °F 93% 30.14 in 10.0 mi WNW 8.1 mph - N/A   Clear
5:33 AM 30.2 °F 24.3 °F 28.4 °F 93% 30.15 in 10.0 mi WNW 5.8 mph - N/A   Clear
5:53 AM 32.0 °F 24.2 °F 30.2 °F 93% 30.15 in 10.0 mi NW 9.2 mph - N/A   Clear
6:13 AM 30.2 °F 22.6 °F 28.4 °F 93% 30.16 in 10.0 mi NW 8.1 mph - N/A   Clear
6:33 AM 30.2 °F 23.4 °F 28.4 °F 93% 30.17 in 10.0 mi NW 6.9 mph - N/A   Clear
6:53 AM 30.2 °F 25.4 °F 28.4 °F 93% 30.19 in 10.0 mi NW 4.6 mph - N/A   Clear
7:13 AM 26.6 °F - 24.8 °F 93% 30.20 in 10.0 mi Calm Calm - N/A   Clear
7:34 AM 28.4 °F 24.6 °F 28.4 °F 100% 30.21 in 10.0 mi NW 3.5 mph - N/A   Clear
7:53 AM 28.4 °F - 26.6 °F 93% 30.21 in 10.0 mi Calm Calm - N/A   Clear
8:13 AM 30.2 °F 24.3 °F 28.4 °F 93% 30.24 in 10.0 mi North 5.8 mph - N/A   Clear
8:34 AM 32.0 °F 26.4 °F 28.4 °F 87% 30.24 in 10.0 mi North 5.8 mph - N/A   Clear
8:53 AM 33.8 °F 27.7 °F 30.2 °F 87% 30.25 in 10.0 mi North 6.9 mph - N/A   Clear
9:13 AM 33.8 °F 29.6 °F 30.2 °F 87% 30.26 in 10.0 mi North 4.6 mph - N/A   Clear
9:34 AM 35.6 °F 29.9 °F 30.2 °F 81% 30.26 in 10.0 mi North 6.9 mph - N/A   Clear
9:53 AM 37.4 °F 32.8 °F 30.2 °F 75% 30.28 in 10.0 mi North 5.8 mph - N/A   Clear
10:13 AM 39.2 °F 34.2 °F 30.2 °F 70% 30.28 in 10.0 mi North 6.9 mph - N/A   Clear
10:34 AM 39.2 °F 33.6 °F 32.0 °F 75% 30.29 in 10.0 mi North 8.1 mph - N/A   Clear
10:53 AM 41.0 °F 34.7 °F 30.2 °F 65% 30.30 in 10.0 mi North 10.4 mph - N/A   Clear
11:13 AM 42.8 °F 38.6 °F 30.2 °F 61% 30.30 in 10.0 mi North 6.9 mph - N/A   Clear
11:34 AM 42.8 °F 37.5 °F 30.2 °F 61% 30.30 in - North 9.2 mph 16.1 mph N/A   Clear
11:53 AM 42.8 °F 37.0 °F 30.2 °F 61% 30.30 in 10.0 mi North 10.4 mph - N/A   Unknown
12:13 PM 44.6 °F 39.7 °F 28.4 °F 53% 30.30 in 10.0 mi North 9.2 mph 16.1 mph N/A   Clear
12:33 PM 44.6 °F 39.7 °F 28.4 °F 53% 30.30 in 10.0 mi North 9.2 mph 17.3 mph N/A   Clear
12:53 PM 44.6 °F 39.2 °F 28.4 °F 53% 30.31 in 10.0 mi NNE 10.4 mph - N/A   Clear
1:13 PM 44.6 °F 39.2 °F 28.4 °F 53% 30.31 in 10.0 mi North 10.4 mph - N/A   Clear
1:33 PM 44.6 °F 39.2 °F 28.4 °F 53% 30.31 in 10.0 mi NNE 10.4 mph 16.1 mph N/A   Clear
1:53 PM 44.6 °F 39.2 °F 26.6 °F 49% 30.32 in 10.0 mi NNE 10.4 mph 16.1 mph N/A   Clear
2:14 PM 44.6 °F 39.2 °F 24.8 °F 46% 30.32 in 10.0 mi North 10.4 mph - N/A   Clear
2:33 PM 44.6 °F 39.7 °F 23.0 °F 43% 30.33 in 10.0 mi NNE 9.2 mph - N/A   Clear
2:53 PM 44.6 °F 39.2 °F 23.0 °F 43% 30.33 in 10.0 mi North 10.4 mph - N/A   Clear
3:14 PM 42.8 °F 36.6 °F 21.2 °F 42% 30.34 in 10.0 mi NNE 11.5 mph - N/A   Clear
3:33 PM 42.8 °F 36.6 °F 21.2 °F 42% 30.35 in 10.0 mi NNE 11.5 mph 18.4 mph N/A   Clear
3:53 PM 41.0 °F 33.9 °F 21.2 °F 45% 30.35 in 10.0 mi NNE 12.7 mph 16.1 mph N/A   Clear
4:13 PM 39.2 °F 32.0 °F 21.2 °F 49% 30.36 in 10.0 mi NNE 11.5 mph - N/A   Clear
4:33 PM 39.2 °F 33.0 °F 21.2 °F 49% 30.37 in 10.0 mi NNE 9.2 mph - N/A   Clear
4:53 PM 37.4 °F 30.8 °F 19.4 °F 48% 30.38 in 10.0 mi NNE 9.2 mph - N/A   Clear
5:13 PM 35.6 °F 30.7 °F 19.4 °F 52% 30.39 in 10.0 mi NNE 5.8 mph - N/A   Clear
5:53 PM 32.0 °F 24.8 °F 19.4 °F 60% 30.39 in 10.0 mi NNE 8.1 mph - N/A   Clear
6:13 PM 30.2 °F 25.4 °F 19.4 °F 64% 30.40 in 10.0 mi North 4.6 mph - N/A   Clear
6:33 PM 30.2 °F - 19.4 °F 64% 30.41 in 10.0 mi Calm Calm - N/A   Clear
6:53 PM 30.2 °F 25.4 °F 19.4 °F 64% 30.41 in 10.0 mi NNE 4.6 mph - N/A   Clear
7:33 PM 28.4 °F 24.6 °F 19.4 °F 69% 30.41 in 10.0 mi NNE 3.5 mph - N/A   Clear
7:53 PM 28.4 °F 23.3 °F 19.4 °F 69% 30.41 in 10.0 mi NNE 4.6 mph - N/A   Clear
8:13 PM 26.6 °F 22.6 °F 19.4 °F 74% 30.42 in 10.0 mi NNE 3.5 mph - N/A   Clear
8:33 PM 26.6 °F 20.0 °F 19.4 °F 74% 30.42 in 10.0 mi NNE 5.8 mph - N/A   Clear
8:53 PM 24.8 °F - 17.6 °F 74% 30.43 in 10.0 mi Calm Calm - N/A   Clear
9:13 PM 24.8 °F 20.5 °F 17.6 °F 74% 30.43 in 10.0 mi NE 3.5 mph - N/A   Clear
9:33 PM 24.8 °F - 17.6 °F 74% 30.44 in 10.0 mi Calm Calm - N/A   Clear
9:53 PM 24.8 °F - 17.6 °F 74% 30.44 in 10.0 mi Calm Calm - N/A   Clear
10:13 PM 24.8 °F 20.5 °F 17.6 °F 74% 30.44 in 10.0 mi NNE 3.5 mph - N/A   Clear
10:33 PM 24.8 °F 19.1 °F 17.6 °F 74% 30.44 in 10.0 mi NNE 4.6 mph - N/A   Clear
10:53 PM 24.8 °F 17.9 °F 17.6 °F 74% 30.44 in 10.0 mi NNE 5.8 mph - N/A   Clear
11:13 PM 23.0 °F 18.4 °F 17.6 °F 80% 30.44 in 10.0 mi NE 3.5 mph - N/A   Clear
11:33 PM 23.0 °F 18.4 °F 17.6 °F 80% 30.44 in 10.0 mi NNE 3.5 mph - N/A   Clear
11:53 PM 21.2 °F 16.4 °F 15.8 °F 80% 30.45 in 10.0 mi NNE 3.5 mph - N/A   Clear